Location: Colebrook
(42.0017°N, 73.0973°W)
Time: 21:07:56
(UTC-04:00)

ISS - Pass Details

Date: 07 October 2021
Orbit: 417 x 423 km, 51.6° (Epoch: 21 October)

Event Time Altitude Azimuth Distance (km) Brightness Sun altitude
Rises 19:01:16 0° 299° (WNW) 2,363 1.2 -7.9°
Reaches altitude 10° 19:03:28 10° 290° (WNW) 1,497 0.4 -8.3°
Maximum altitude 19:06:34 36° 222° (SW) 680 -2.3 -8.9°
Drops below altitude 10° 19:09:41 10° 154° (SSE) 1,490 -1.2 -9.4°
Enters shadow 19:11:35 - 146° (SSE) 2,240 -0.4 -9.8°
